Albert Lea, MN

11:13 PM CST on February 24, 2017 (GMT -0600)
Albert Lea Municipal

Weather History for KAEL - October, 2013

Change the Weather History Date:

Tuesday, October 22, 2013

  Actual Average Record
Temperature  
Mean Temperature 32 °F -  
Max Temperature 39 °F 54 °F 71 °F (2003)
Min Temperature 24 °F 36 °F 23 °F (1997)
Degree Days  
Heating Degree Days 34    
Moisture  
Dew Point 27 °F    
Average Humidity 80    
Maximum Humidity 100    
Minimum Humidity 56    
Precipitation  
Precipitation 0.00 in - - ()
Sea Level Pressure  
Sea Level Pressure 29.98 in    
Wind  
Wind Speed 2 mph (NNW)    
Max Wind Speed 10 mph    
Max Gust Speed -    
Visibility 10 miles    
Events      
Averages and records for this station are not official NWS values.
T = Trace of Precipitation, MM = Missing Value Source: NWS Daily Summary

Daily Weather History Graph

Daily Weather History Graph

Search for Another Location

Airport or City:

Trip Planner

Search our weather history database for the weather conditions in past years. The results will help you decide how hot, cold, wet, or windy it might be!

Date:

Astronomy

Oct. 22, 2013 Rise Set
Actual Time 7:36 AM CDT 6:18 PM CDT
Civil Twilight 7:07 AM CDT 6:47 PM CDT
Nautical Twilight 6:34 AM CDT 7:20 PM CDT
Astronomical Twilight 6:00 AM CDT 7:54 PM CDT
Moon 8:54 PM CDT (10/22) 11:10 AM CDT (10/22)
Length of Visible Light 11h 40m
Length of Day
10h 41m
Waning Gibbous, 86% of the Moon is Illuminated
Oct 22
Waning Gibbous
Oct 26
Last Quarter
Nov 3
New
Nov 9
First Quarter
Nov 17
Full

Hourly Weather History & Observations

Time (CDT) Temp. Windchill Dew Point Humidity Pressure Visibility Wind Dir Wind Speed Gust Speed Precip Events Conditions
12:10 AM 26.6 °F - 26.6 °F 100% 29.96 in 10.0 mi Calm Calm - N/A   Clear
12:30 AM 24.8 °F - 24.8 °F 100% 29.95 in 10.0 mi Calm Calm - N/A   Scattered Clouds
12:50 AM 26.6 °F - 26.6 °F 100% 29.96 in 10.0 mi Calm Calm - N/A   Scattered Clouds
1:10 AM 26.6 °F - 26.6 °F 100% 29.96 in 10.0 mi Calm Calm - N/A   Mostly Cloudy
1:30 AM 26.6 °F - 26.6 °F 100% 29.97 in 10.0 mi Calm Calm - N/A   Overcast
1:50 AM 26.6 °F - 26.6 °F 100% 29.96 in 10.0 mi Calm Calm - N/A   Overcast
2:10 AM 26.6 °F - 26.6 °F 100% 29.96 in 10.0 mi Calm Calm - N/A   Scattered Clouds
2:30 AM 26.6 °F - 26.6 °F 100% 29.96 in 10.0 mi Calm Calm - N/A   Clear
2:50 AM 28.4 °F - 26.6 °F 93% 29.96 in 10.0 mi Calm Calm - N/A   Clear
3:10 AM 26.6 °F - 26.6 °F 100% 29.96 in 10.0 mi Calm Calm - N/A   Clear
3:30 AM 26.6 °F - 26.6 °F 100% 29.96 in 10.0 mi Calm Calm - N/A   Clear
3:50 AM 26.6 °F - 26.6 °F 100% 29.95 in 10.0 mi Calm Calm - N/A   Scattered Clouds
4:10 AM 26.6 °F - 26.6 °F 100% 29.95 in 10.0 mi Calm Calm - N/A   Overcast
4:30 AM 28.4 °F - 26.6 °F 93% 29.95 in 10.0 mi Calm Calm - N/A   Mostly Cloudy
4:50 AM 26.6 °F - 26.6 °F 100% 29.95 in 10.0 mi Calm Calm - N/A   Overcast
5:10 AM 26.6 °F - 26.6 °F 100% 29.94 in 10.0 mi Calm Calm - N/A   Overcast
5:30 AM 28.4 °F - 26.6 °F 93% 29.94 in 10.0 mi Calm Calm - N/A   Overcast
5:50 AM 26.6 °F - 26.6 °F 100% 29.94 in 10.0 mi Calm Calm - N/A   Overcast
6:10 AM 28.4 °F - 26.6 °F 93% 29.94 in 10.0 mi Calm Calm - N/A   Overcast
6:30 AM 28.4 °F - 26.6 °F 93% 29.94 in 10.0 mi Calm Calm - N/A   Overcast
6:50 AM 28.4 °F - 26.6 °F 93% 29.94 in 10.0 mi Calm Calm - N/A   Overcast
7:10 AM 28.4 °F - 26.6 °F 93% 29.94 in 10.0 mi Calm Calm - N/A   Mostly Cloudy
7:30 AM 28.4 °F - 26.6 °F 93% 29.95 in 10.0 mi Calm Calm - N/A   Scattered Clouds
7:50 AM 28.4 °F - 26.6 °F 93% 29.95 in 10.0 mi Calm Calm - N/A   Scattered Clouds
8:10 AM 28.4 °F - 26.6 °F 93% 29.95 in 10.0 mi Calm Calm - N/A   Scattered Clouds
8:30 AM 28.4 °F - 26.6 °F 93% 29.95 in 10.0 mi Calm Calm - N/A   Scattered Clouds
8:50 AM 30.2 °F - 26.6 °F 86% 29.96 in 10.0 mi Calm Calm - N/A   Mostly Cloudy
9:10 AM 30.2 °F - 28.4 °F 93% 29.97 in 10.0 mi Calm Calm - N/A   Scattered Clouds
9:30 AM 30.2 °F 25.4 °F 28.4 °F 93% 29.97 in 10.0 mi North 4.6 mph - N/A   Mostly Cloudy
9:50 AM 30.2 °F 22.6 °F 28.4 °F 93% 29.98 in 10.0 mi North 8.1 mph - N/A   Overcast
10:10 AM 33.8 °F 28.6 °F 28.4 °F 81% 29.98 in 10.0 mi North 5.8 mph - N/A   Overcast
10:30 AM 35.6 °F 30.7 °F 30.2 °F 81% 29.97 in 10.0 mi North 5.8 mph - N/A   Mostly Cloudy
10:50 AM 35.6 °F 29.9 °F 28.4 °F 75% 29.97 in 10.0 mi NNE 6.9 mph - N/A   Scattered Clouds
11:10 AM 37.4 °F 34.9 °F 28.4 °F 70% 29.98 in 10.0 mi North 3.5 mph - N/A   Clear
11:30 AM 37.4 °F 34.9 °F 28.4 °F 70% 29.98 in 10.0 mi NNW 3.5 mph - N/A   Clear
11:50 AM 37.4 °F 32.8 °F 28.4 °F 70% 29.98 in 10.0 mi North 5.8 mph - N/A   Scattered Clouds
12:10 PM 39.2 °F 33.0 °F 28.4 °F 65% 29.98 in 10.0 mi NE 9.2 mph - N/A   Mostly Cloudy
12:30 PM 39.2 °F 33.0 °F 28.4 °F 65% 29.97 in 10.0 mi NNE 9.2 mph - N/A   Overcast
12:50 PM 39.2 °F 33.6 °F 26.6 °F 61% 29.97 in 10.0 mi North 8.1 mph - N/A   Overcast
1:10 PM 39.2 °F 33.0 °F 28.4 °F 65% 29.97 in 10.0 mi North 9.2 mph - N/A   Overcast
1:30 PM 39.2 °F 32.5 °F 26.6 °F 61% 29.97 in 10.0 mi North 10.4 mph - N/A   Overcast
1:50 PM 39.2 °F 34.2 °F 26.6 °F 61% 29.97 in 10.0 mi NNW 6.9 mph - N/A   Overcast
2:10 PM 39.2 °F 32.5 °F 26.6 °F 61% 29.97 in 10.0 mi North 10.4 mph - N/A   Overcast
2:30 PM 39.2 °F 33.0 °F 28.4 °F 65% 29.97 in 10.0 mi North 9.2 mph - N/A   Overcast
2:50 PM 39.2 °F 33.0 °F 26.6 °F 61% 29.98 in 10.0 mi NNW 9.2 mph - N/A   Overcast
3:10 PM 37.4 °F 30.8 °F 26.6 °F 65% 29.98 in 10.0 mi NNW 9.2 mph - N/A   Overcast
3:30 PM 39.2 °F 33.6 °F 26.6 °F 61% 29.98 in 10.0 mi NW 8.1 mph - N/A   Overcast
3:50 PM 39.2 °F 33.6 °F 26.6 °F 61% 29.98 in 10.0 mi NNW 8.1 mph - N/A   Overcast
4:10 PM 39.2 °F 33.6 °F 26.6 °F 61% 29.99 in 10.0 mi NNW 8.1 mph - N/A   Overcast
4:30 PM 39.2 °F 33.6 °F 26.6 °F 61% 30.00 in 10.0 mi NW 8.1 mph - N/A   Overcast
4:50 PM 39.2 °F 34.2 °F 24.8 °F 56% 30.00 in 10.0 mi NW 6.9 mph - N/A   Overcast
5:10 PM 37.4 °F 33.8 °F 24.8 °F 60% 30.01 in 10.0 mi NW 4.6 mph - N/A   Overcast
5:30 PM 37.4 °F 34.9 °F 26.6 °F 65% 30.01 in 10.0 mi NW 3.5 mph - N/A   Overcast
5:50 PM 37.4 °F 32.8 °F 26.6 °F 65% 30.01 in 10.0 mi NW 5.8 mph - N/A   Overcast
6:10 PM 37.4 °F - 26.6 °F 65% 30.01 in 10.0 mi Calm Calm - N/A   Overcast
6:30 PM 37.4 °F 32.8 °F 26.6 °F 65% 30.01 in 10.0 mi NNW 5.8 mph - N/A   Overcast
6:50 PM 37.4 °F 33.8 °F 26.6 °F 65% 30.01 in 10.0 mi NW 4.6 mph - N/A   Overcast
7:10 PM 37.4 °F 34.9 °F 28.4 °F 70% 30.02 in 10.0 mi NW 3.5 mph - N/A   Overcast
7:30 PM 37.4 °F - 28.4 °F 70% 30.02 in 10.0 mi Calm Calm - N/A   Overcast
7:50 PM 37.4 °F 33.8 °F 28.4 °F 70% 30.02 in 10.0 mi WNW 4.6 mph - N/A   Overcast
8:10 PM 35.6 °F 32.8 °F 28.4 °F 75% 30.02 in 10.0 mi WNW 3.5 mph - N/A   Overcast
8:30 PM 35.6 °F 32.8 °F 28.4 °F 75% 30.02 in 10.0 mi WNW 3.5 mph - N/A   Mostly Cloudy
8:50 PM 33.8 °F 30.8 °F 28.4 °F 81% 30.02 in 10.0 mi WNW 3.5 mph - N/A   Mostly Cloudy
9:10 PM 33.8 °F 30.8 °F 28.4 °F 81% 30.02 in 10.0 mi West 3.5 mph - N/A   Mostly Cloudy
9:30 PM 33.8 °F - 28.4 °F 81% 30.03 in 10.0 mi Calm Calm - N/A   Overcast
9:50 PM 33.8 °F - 28.4 °F 81% 30.03 in 10.0 mi Calm Calm - N/A   Overcast
10:10 PM 33.8 °F - 28.4 °F 81% 30.03 in 10.0 mi Calm Calm - N/A   Overcast
10:30 PM 35.6 °F 29.9 °F 30.2 °F 81% 30.03 in 10.0 mi WNW 6.9 mph - N/A   Overcast
10:50 PM 35.6 °F 29.9 °F 28.4 °F 75% 30.03 in 10.0 mi WNW 6.9 mph - N/A   Overcast
11:10 PM 35.6 °F 29.9 °F 28.4 °F 75% 30.02 in 10.0 mi WNW 6.9 mph - N/A   Overcast
11:30 PM 35.6 °F 29.9 °F 28.4 °F 75% 30.02 in 10.0 mi WNW 6.9 mph - N/A   Overcast
11:50 PM 35.6 °F 31.7 °F 28.4 °F 75% 30.02 in 10.0 mi WNW 4.6 mph - N/A   Overcast